Change the Weather History Date:

Tuesday, October 22, 2013

  Actual Average Record
Temperature  
Mean Temperature 46 °F -  
Max Temperature 60 °F - - ()
Min Temperature 31 °F - - ()
Degree Days  
Heating Degree Days 20    
Moisture  
Dew Point 37 °F    
Average Humidity 88    
Maximum Humidity 100    
Minimum Humidity 44    
Precipitation  
Precipitation 0.00 in - - ()
Sea Level Pressure  
Sea Level Pressure 30.21 in    
Wind  
Wind Speed 1 mph ()    
Max Wind Speed 8 mph    
Max Gust Speed -    
T = Trace of Precipitation, MM = Missing Value Source: Averaged Metar Reports

Daily Weather History Graph

Daily Weather History Graph

Search for Another Location

Airport or City:

Trip Planner

Search our weather history database for the weather conditions in past years. The results will help you decide how hot, cold, wet, or windy it might be!

Date:

Astronomy

Oct. 22, 2013 Rise Set
Actual Time 7:34 AM PDT 5:57 PM PDT
Civil Twilight 7:02 AM PDT 6:29 PM PDT
Nautical Twilight 6:24 AM PDT 7:07 PM PDT
Astronomical Twilight 5:47 AM PDT 7:44 PM PDT
Moon 8:27 PM PDT (10/22) 11:22 AM PDT (10/22)
Length of Visible Light 11h 27m
Length of Day
10h 22m
Waning Gibbous, 86% of the Moon is Illuminated
Oct 22
Waning Gibbous
Oct 26
Last Quarter
Nov 3
New
Nov 9
First Quarter
Nov 17
Full

Hourly Weather History & Observations

Time (PDT) Temp. Dew Point Humidity Pressure Visibility Wind Dir Wind Speed Gust Speed Precip Events Conditions
12:00 AM 37.0 °F 37.0 °F 100% 30.24 in - NW 1.2 mph - N/A   Unknown
1:00 AM 35.8 °F 35.8 °F 100% 30.24 in - WNW 1.2 mph - N/A   Unknown
2:00 AM 34.7 °F 34.7 °F 100% 30.24 in - NNW 2.3 mph - N/A   Unknown
3:00 AM 32.9 °F 32.9 °F 100% 30.24 in - Calm Calm - N/A   Unknown
4:00 AM 33.1 °F 33.1 °F 100% 30.24 in - West 1.2 mph - N/A   Unknown
5:00 AM 33 °F 33 °F 100% 30.25 in - WSW 1.2 mph - -  
5:00 AM 33.3 °F 33.3 °F 100% 30.25 in - WSW 1.2 mph - N/A   Unknown
6:00 AM 33.3 °F 33.3 °F 100% 30.26 in - ENE 1.2 mph - N/A   Unknown
7:00 AM 31.5 °F 31.5 °F 100% 30.28 in - NNE 1.2 mph - N/A   Unknown
8:00 AM 31.6 °F 31.6 °F 100% 30.29 in - NE 1.2 mph - N/A   Unknown
9:00 AM 31.8 °F 31.8 °F 100% 30.30 in - East 1.2 mph - N/A   Unknown
10:00 AM 33.4 °F 33.4 °F 100% 30.29 in - SW 1.2 mph - N/A   Unknown
11:00 AM 36 °F 36 °F 99% 30.27 in - Calm Calm - -  
11:00 AM 35.8 °F 35.8 °F 100% 30.27 in - Calm Calm - N/A   Unknown
12:00 PM 41.7 °F 41.7 °F 100% 30.23 in - SE 1.2 mph - N/A   Unknown
1:00 PM 50.9 °F 43.7 °F 76% 30.18 in - SE 1.2 mph - N/A   Unknown
2:00 PM 55.8 °F 41.7 °F 59% 30.14 in - East 1.2 mph - N/A   Unknown
3:00 PM 59.2 °F 41.2 °F 51% 30.12 in - SE 2.3 mph - N/A   Unknown
4:00 PM 60.1 °F 41.7 °F 51% 30.12 in - East 2.3 mph - N/A   Unknown
5:00 PM 59 °F 43 °F 44% 30.11 in - NE 1.2 mph - -  
5:00 PM 59.2 °F 42.8 °F 55% 30.11 in - NE 1.2 mph - N/A   Unknown
6:00 PM 51.4 °F 43.3 °F 74% 30.12 in - NNW 8.1 mph - N/A   Unknown
7:00 PM 48.4 °F 42.3 °F 79% 30.14 in - West 3.5 mph - N/A   Unknown
8:00 PM 45.0 °F 41.2 °F 87% 30.16 in - East 1.2 mph - N/A   Unknown
9:00 PM 40.6 °F 39.0 °F 94% 30.19 in - SW 1.2 mph - N/A   Unknown
10:00 PM 38.7 °F 38.1 °F 98% 30.21 in - North 1.2 mph - N/A   Unknown
11:00 PM 36.9 °F 36.9 °F 100% 30.21 in - NNW 1.2 mph - N/A   Unknown